Flag for Germany Weather for the Past 2 Weeks in Geislingen an der Steige, Baden-Württemberg, Germany

Now
55 °F

Passing clouds.


Feels Like: 54 °F
Forecast: 30 / 58 °F
Wind: 6 mph from West

Location: Laupheim Airport

Current Time: Apr 29, 2016 at 4:37:17 PM

Latest Report: Apr 29, 2016 at 3:20 PM


Visibility: N/A

Pressure: 30.04 "Hg

Humidity: 36%

Dew Point: 28 °F

Location of Geislingen an der SteigeLocation

Historic Weather in Geislingen an der Steige — Graph

°F

Geislingen an der Steige Temperature Yesterday

Maximum temperature yesterday: 45 °F (at 11:20 AM)
Minimum temperature yesterday: 28 °F (at 4:20 AM)
Average temperature yesterday: 38 °F

High & Low Weather Summary for the Past Weeks

 TemperatureHumidityPressure
High64 °F (Apr 21, 3:20 PM)100% (Apr 16, 4:20 AM)30.36 "Hg (Apr 16, 4:20 AM)
Low28 °F (Apr 28, 4:20 AM)36% (Apr 29, 3:20 PM)29.59 "Hg (Apr 26, 7:20 AM)
Average44 °F76%29.94 "Hg
* Reported Apr 14 3:20 PM — Apr 29 3:20 PM, Geislingen an der Steige, Weather by CustomWeather, © 2016

Note: Actual official high and low records may vary slightly from our data, if they occured in-between our weather recording intervals... More about our weather records

Advertising

Geislingen an der Steige Weather History for the Previous 24 Hours

Scroll right to see more
 ConditionsComfort  
Time TempWeatherWind HumidityBarometerVisibility
3:20 PM
Fri, Apr 29
55 °FPassing clouds.6 mph36%30.04 "HgN/A
2:20 PM54 °FPassing clouds.7 mph44%30.04 "HgN/A
1:20 PM52 °FPassing clouds.2 mph44%30.04 "HgN/A
12:20 PM52 °FScattered clouds.3 mph44%30.07 "HgN/A
12:00 PM50 °FPassing clouds.2 mph43%30.07 "HgN/A
11:20 AM50 °FPassing clouds.2 mph62%30.07 "HgN/A
10:20 AM43 °FPassing clouds.3 mph76%30.07 "HgN/A
9:20 AM39 °FScattered clouds.2 mph87%30.07 "Hg6 mi
8:20 AM34 °FFog.1 mph93%30.07 "Hg4 mi
7:20 AM32 °FFog.1 mph93%30.07 "Hg2 mi
6:20 AM28 °FIce fog.No wind93%30.04 "Hg0 mi
5:20 AM30 °FFog.2 mph93%30.04 "Hg5 mi
4:20 AM30 °FFog.2 mph93%30.04 "Hg5 mi
3:20 AM32 °FFog.No wind87%30.04 "Hg6 mi
2:20 AM32 °FPassing clouds.1 mph93%30.04 "HgN/A
1:20 AM32 °FPassing clouds.2 mph93%30.04 "HgN/A
12:20 AM34 °FPassing clouds.2 mph87%30.04 "HgN/A
11:20 PM
Thu, Apr 28
39 °FPassing clouds.2 mph70%30.04 "HgN/A
10:20 PM37 °FPassing clouds.5 mph81%30.04 "HgN/A
9:20 PM41 °FPassing clouds.3 mph76%30.01 "HgN/A
8:20 PM43 °FPassing clouds.2 mph66%30.01 "HgN/A
7:20 PM45 °FScattered clouds.1 mph57%30.01 "HgN/A
6:20 PM45 °FScattered clouds.5 mph61%30.01 "HgN/A
5:20 PM41 °FSnow flurries. Partly sunny.5 mph76%30.01 "HgN/A
4:52 PM41 °FRain showers. Broken clouds.9 mph70%30.01 "Hg4 mi
4:20 PM45 °FScattered showers. Scattered clouds.3 mph53%29.98 "HgN/A
Weather by CustomWeather, © 2016

See weather overviewHow to use our weather pages